Probability
0 0 0 0 0 0 0 0 0 0 0 0 0 0 0 0 3 3 3 6 10 10 10 26 26 26 42 55 61 65 68 77 77 71 61 61 48 58 65 61 61 58 58 52
0 0 0 0 0 0 0 0 0 0 0 0 3 3 3 3 6 6 13 10 10 19 23 29 29 35 39 48 65 71 84 77 77 74 74 71 58 48 55 68 74 71 68 71
0 0 0 0 0 0 0 0 0 0 0 0 3 3 6 6 3 6 6 16 10 16 16 35 35 39 42 45 55 52 84 81 81 81 68 68 68 68 61 74 81 77 77 84
0 0 0 0 0 0 0 0 0 0 0 0 0 0 6 6 3 6 6 13 16 13 16 23 35 35 42 42 48 65 81 84 87 84 71 61 77 61 68 74 77 77 84 81
0 0 0 0 0 0 0 0 0 0 0 0 0 0 3 6 6 6 10 13 13 16 19 19 32 35 39 42 39 65 81 87 81 81 84 87 71 71 68 77 84 81 77 74
0 0 0 0 0 0 0 0 0 0 0 0 0 0 3 6 6 6 10 10 16 16 16 29 32 39 42 42 42 58 77 87 87 84 81 81 81 81 68 74 74 68 71 74
0 0 0 0 0 0 0 0 0 0 0 0 3 0 6 10 13 13 6 6 23 26 23 32 39 42 42 42 42 48 74 87 84 84 81 77 84 81 81 71 68 68 61 68
0 0 0 0 0 0 0 0 0 0 0 0 3 0 10 6 13 10 6 10 23 32 39 42 48 42 42 42 45 55 71 84 81 81 81 74 77 71 68 77 71 68 65 68
0 0 0 0 0 0 0 0 0 0 0 0 0 3 6 3 6 6 10 10 19 26 39 45 45 45 32 39 42 52 74 84 84 84 84 77 77 74 74 71 71 61 68 68
0 0 0 0 0 0 0 0 0 0 0 0 0 0 3 10 10 10 10 16 19 19 32 42 45 39 35 35 52 58 77 81 84 81 81 71 74 77 77 68 71 71 71 74
0 0 0 0 0 0 0 0 0 0 0 0 0 0 6 10 16 13 16 19 19 29 29 32 39 35 35 29 42 48 68 74 77 81 81 74 68 71 71 68 65 68 68 71
0 0 0 0 0 0 0 0 0 0 0 0 0 0 6 13 19 13 19 19 26 29 32 35 42 45 45 42 45 52 58 65 71 71 84 81 77 74 71 68 68 68 68 65
0 0 0 0 0 0 0 0 0 0 0 0 0 0 6 13 13 13 10 23 29 35 39 39 42 48 48 48 48 55 55 58 65 68 74 74 74 74 71 71 68 71 71 65
0 0 0 0 0 0 0 0 0 0 0 0 0 3 3 10 10 13 13 23 32 42 48 39 42 42 52 58 61 58 61 61 61 68 65 68 77 77 71 74 71 71 71 65
0 0 0 0 0 0 0 0 0 0 0 0 0 0 10 13 13 16 19 26 29 39 45 55 52 55 58 58 68 61 61 61 68 68 68 68 71 74 71 71 74 77 68 65
0 0 0 0 0 0 0 0 0 0 0 0 0 6 16 13 10 19 19 26 29 29 35 39 48 52 58 61 61 61 61 68 68 68 71 68 71 74 71 71 68 68 68 71
0 0 0 0 0 0 0 0 0 0 0 0 0 13 13 13 19 23 29 26 23 29 35 42 45 52 52 58 58 58 61 61 68 68 68 68 74 71 68 65 61 61 65 55
0 0 0 0 0 0 0 0 0 0 0 6 6 19 16 16 19 29 26 26 29 29 29 42 42 42 45 52 52 55 55 55 58 55 58 61 65 71 68 65 65 55 52 52
0 0 0 0 0 0 0 0 0 3 6 6 13 13 16 19 23 26 26 29 32 35 39 48 45 48 48 48 52 48 48 52 55 55 58 55 58 58 61 61 55 55 48 48
0 3 0 0 0 0 0 3 6 3 10 10 10 13 13 19 13 16 26 19 19 23 42 45 42 48 48 52 52 52 52 52 52 55 58 61 61 61 55 48 52 52 45 48
0 0 0 0 0 0 3 6 6 0 6 16 13 13 13 13 10 19 16 13 26 26 39 42 45 45 48 52 52 55 55 55 58 55 55 55 61 61 55 48 48 45 42 42
0 0 0 0 0 3 6 6 10 19 16 19 13 16 19 19 16 19 23 19 23 26 35 39 42 48 45 52 52 55 55 55 55 52 45 45 48 45 45 55 55 42 35 39
0 0 0 0 0 10 6 10 13 13 19 13 13 16 16 23 16 19 19 26 26 29 26 32 39 42 42 39 45 55 52 48 48 45 48 45 45 45 45 42 39 29 26 23
0 0 0 0 0 10 13 6 6 10 10 6 6 13 10 10 10 13 19 26 26 29 26 23 29 35 39 39 42 42 48 48 45 48 45 42 42 32 32 29 23 23 23 23
3 3 0 3 10 10 6 6 3 10 10 10 10 13 13 10 16 19 19 26 23 23 23 23 23 32 32 35 35 35 39 42 39 39 39 39 35 29 26 19 23 16 19 16
3 3 6 6 3 13 6 13 3 10 16 10 10 10 16 16 16 10 16 16 23 23 19 19 19 26 29 29 29 26 32 29 32 32 32 32 29 19 16 16 16 10 16 10
Height
5905 5908 5909 5910 5911 5913 5913 5914 5914 5914 5913 5913 5913 5913 5913 5912 5911 5911 5910 5910 5909 5909 5908 5907 5907 5906 5906 5905 5905 5904 5904 5903 5903 5903 5903 5903 5903 5903 5902 5902 5902 5902 5902 5901
5905 5906 5907 5908 5909 5911 5912 5913 5913 5913 5913 5913 5913 5913 5913 5912 5912 5912 5911 5910 5910 5909 5909 5908 5908 5907 5907 5907 5906 5906 5905 5905 5904 5904 5904 5904 5903 5903 5903 5903 5902 5902 5902 5902
5902 5905 5905 5906 5908 5909 5910 5911 5912 5912 5912 5912 5912 5913 5913 5913 5912 5912 5911 5911 5910 5910 5910 5909 5909 5908 5908 5907 5907 5907 5906 5906 5905 5905 5904 5904 5904 5904 5903 5903 5903 5903 5902 5902
5899 5901 5902 5904 5905 5907 5909 5909 5910 5910 5911 5912 5913 5914 5914 5912 5912 5912 5911 5911 5911 5911 5910 5910 5910 5909 5908 5908 5907 5907 5907 5906 5905 5905 5904 5904 5904 5904 5904 5903 5903 5903 5902 5902
5896 5897 5899 5901 5903 5904 5906 5907 5908 5909 5910 5911 5912 5913 5914 5912 5912 5911 5911 5911 5911 5910 5910 5910 5910 5909 5909 5908 5908 5907 5907 5906 5906 5905 5905 5905 5904 5904 5904 5903 5903 5903 5902 5902
5892 5894 5896 5898 5900 5901 5903 5905 5906 5907 5908 5910 5910 5911 5912 5911 5910 5910 5910 5910 5910 5910 5910 5909 5909 5909 5908 5908 5907 5907 5907 5906 5906 5905 5905 5904 5904 5904 5904 5903 5903 5902 5902 5901
5888 5890 5892 5894 5897 5899 5900 5903 5906 5907 5907 5908 5908 5908 5909 5909 5908 5909 5909 5909 5909 5909 5909 5908 5908 5908 5908 5907 5907 5907 5906 5906 5905 5905 5904 5904 5904 5903 5903 5902 5902 5901 5900 5899
5885 5887 5888 5891 5893 5895 5897 5900 5903 5906 5907 5907 5905 5905 5907 5906 5906 5906 5907 5907 5907 5907 5907 5907 5907 5907 5906 5906 5906 5906 5905 5905 5904 5904 5903 5903 5902 5902 5901 5901 5900 5899 5899 5898
5881 5883 5885 5886 5889 5891 5893 5895 5899 5901 5901 5903 5903 5903 5904 5903 5904 5904 5904 5904 5905 5905 5905 5905 5905 5905 5905 5905 5905 5904 5904 5903 5903 5902 5902 5901 5900 5900 5899 5898 5898 5897 5897 5896
5876 5878 5880 5882 5884 5886 5889 5891 5894 5896 5897 5899 5900 5900 5901 5900 5901 5901 5901 5902 5902 5902 5902 5902 5902 5903 5903 5902 5902 5902 5902 5901 5901 5900 5899 5899 5898 5897 5897 5896 5896 5895 5894 5893
5870 5873 5875 5877 5879 5882 5884 5886 5888 5890 5893 5895 5897 5900 5897 5897 5897 5898 5898 5898 5898 5899 5899 5899 5899 5899 5900 5900 5899 5899 5899 5899 5898 5897 5897 5896 5896 5895 5894 5894 5893 5892 5891 5890
5863 5867 5869 5871 5874 5876 5878 5880 5883 5885 5886 5888 5891 5896 5892 5892 5893 5893 5893 5894 5894 5895 5895 5895 5896 5896 5896 5896 5896 5896 5896 5895 5895 5894 5894 5893 5893 5892 5891 5890 5890 5889 5888 5887
5857 5860 5863 5866 5869 5870 5871 5873 5876 5879 5882 5883 5886 5890 5887 5887 5888 5888 5889 5889 5889 5890 5891 5891 5892 5892 5892 5892 5892 5892 5892 5892 5891 5891 5890 5890 5889 5889 5888 5887 5886 5885 5885 5884
5849 5853 5857 5861 5862 5863 5864 5867 5869 5872 5874 5876 5878 5881 5882 5882 5882 5883 5884 5884 5885 5885 5886 5886 5887 5888 5888 5888 5888 5888 5888 5888 5887 5887 5886 5886 5885 5885 5884 5883 5883 5882 5881 5880
5841 5845 5847 5850 5853 5855 5857 5859 5861 5864 5866 5869 5872 5873 5875 5875 5876 5877 5878 5879 5879 5880 5881 5882 5882 5883 5883 5883 5883 5883 5883 5883 5882 5882 5882 5881 5881 5880 5880 5879 5878 5877 5876 5875
5833 5836 5839 5842 5844 5846 5848 5851 5853 5856 5858 5861 5863 5866 5867 5868 5869 5870 5872 5873 5873 5874 5875 5876 5877 5877 5878 5878 5878 5878 5878 5877 5877 5877 5877 5877 5876 5875 5875 5874 5873 5873 5871 5870
5824 5828 5831 5834 5836 5837 5840 5843 5845 5847 5850 5853 5855 5858 5859 5860 5861 5863 5864 5866 5867 5868 5869 5870 5870 5871 5872 5872 5872 5872 5872 5872 5872 5872 5871 5871 5870 5870 5869 5868 5868 5867 5865 5864
5816 5819 5822 5825 5827 5828 5833 5834 5836 5839 5841 5843 5846 5848 5850 5852 5854 5855 5857 5858 5860 5861 5862 5863 5864 5865 5865 5866 5866 5865 5865 5865 5865 5865 5865 5865 5864 5864 5863 5862 5861 5860 5858 5857
5808 5810 5813 5816 5818 5819 5822 5825 5827 5830 5832 5834 5837 5839 5841 5843 5845 5847 5848 5850 5852 5853 5854 5855 5856 5857 5858 5858 5858 5858 5858 5858 5858 5858 5858 5858 5857 5857 5856 5855 5854 5852 5851 5850
5799 5801 5805 5806 5809 5811 5814 5816 5818 5821 5822 5826 5828 5830 5833 5835 5837 5838 5840 5841 5843 5844 5845 5847 5848 5849 5850 5850 5851 5851 5851 5851 5851 5851 5850 5850 5850 5849 5848 5847 5846 5844 5843 5841
5790 5792 5795 5797 5799 5801 5804 5806 5809 5812 5814 5816 5819 5821 5824 5826 5828 5830 5831 5832 5833 5835 5836 5838 5839 5840 5841 5842 5842 5842 5843 5843 5843 5842 5842 5842 5841 5840 5839 5838 5837 5836 5834 5833
5782 5784 5786 5788 5790 5794 5795 5797 5799 5801 5804 5807 5809 5812 5814 5816 5818 5819 5821 5822 5823 5825 5827 5828 5829 5831 5831 5832 5833 5833 5833 5833 5833 5833 5833 5832 5832 5831 5830 5829 5828 5826 5825 5823
5773 5776 5777 5780 5783 5784 5786 5787 5789 5792 5794 5797 5799 5802 5803 5806 5807 5809 5810 5811 5813 5814 5816 5818 5819 5820 5821 5822 5822 5823 5823 5823 5823 5823 5823 5822 5822 5821 5820 5819 5818 5817 5815 5813
5764 5767 5769 5770 5773 5774 5776 5777 5779 5781 5784 5787 5789 5791 5793 5795 5797 5798 5800 5801 5802 5803 5805 5806 5808 5809 5810 5811 5812 5812 5813 5812 5813 5813 5813 5813 5812 5811 5810 5809 5808 5806 5805 5803
5756 5758 5759 5761 5763 5764 5766 5768 5770 5772 5774 5776 5778 5780 5782 5784 5786 5787 5788 5789 5791 5793 5794 5796 5797 5798 5800 5800 5801 5802 5802 5802 5802 5802 5802 5802 5801 5801 5800 5798 5797 5796 5794 5792
5748 5749 5750 5752 5753 5754 5756 5758 5759 5761 5763 5766 5768 5770 5771 5773 5775 5776 5777 5778 5780 5782 5784 5785 5786 5788 5789 5790 5791 5791 5791 5792 5791 5791 5791 5790 5790 5790 5789 5787 5786 5784 5783 5782
Wind_Speed
10 9 8 8 7 6 5 4 4 3 2 2 1 1 1 2 2 2 2 2 2 2 3 4 4 4 4 4 4 4 4 4 4 4 4 3 3 4 4 4 4 4 4 3
12 11 11 10 9 8 6 6 5 5 4 3 2 1 1 1 1 0 1 0 1 1 1 3 3 3 3 3 3 3 3 2 2 2 3 3 3 3 3 3 3 3 2 2
13 13 12 12 11 9 8 7 7 7 5 4 3 2 2 2 2 1 1 1 1 1 1 0 1 2 2 2 2 1 2 2 1 1 1 2 3 2 2 2 2 2 1 1
16 15 14 13 13 11 11 10 9 7 6 5 4 3 3 3 3 3 3 2 2 2 2 1 1 1 1 1 1 1 1 1 1 1 1 2 1 0 1 1 2 2 2 2
17 17 16 15 14 14 14 12 10 9 8 7 7 6 5 5 4 5 5 4 3 3 3 3 3 2 2 2 2 1 1 1 1 1 0 1 2 2 2 2 2 3 3 3
18 19 18 17 16 15 15 13 12 10 9 9 8 7 7 6 6 6 6 6 5 5 5 5 4 4 4 3 3 3 2 3 3 2 2 3 3 3 3 3 4 4 4 5
20 20 20 19 18 17 15 13 11 10 10 10 10 9 8 7 8 8 8 8 7 7 6 6 6 5 5 5 4 5 5 5 4 4 4 5 5 5 5 5 5 6 6 7
20 21 22 21 20 19 17 15 14 12 11 12 12 11 9 9 10 9 9 9 9 9 8 8 8 8 8 7 7 6 6 6 6 7 7 7 8 7 7 7 7 8 8 8
21 22 22 22 22 22 20 19 16 15 14 13 14 14 11 11 12 11 10 10 10 10 10 9 9 10 10 9 9 8 9 8 8 8 8 8 9 9 9 9 9 9 9 9
23 23 23 23 23 23 23 21 20 18 17 16 15 14 14 13 13 12 12 11 11 12 12 12 11 11 11 11 10 10 10 10 10 10 10 10 11 11 10 10 10 11 11 11
25 25 24 24 24 24 24 24 23 21 20 17 16 16 16 15 15 14 14 13 14 13 14 14 14 13 13 13 12 12 12 12 11 11 12 12 12 12 12 13 13 12 12 12
26 25 25 26 26 26 26 26 25 24 23 22 19 18 18 17 16 16 16 16 15 15 16 16 16 15 14 14 13 13 14 14 14 14 14 14 14 13 13 14 14 14 14 13
28 27 27 26 27 28 28 27 26 26 25 25 22 21 20 18 18 18 17 17 17 17 17 17 17 17 17 16 15 15 16 16 16 15 16 16 15 15 14 15 14 14 14 14
29 29 29 27 26 28 29 29 28 28 28 27 26 24 22 21 20 19 19 18 19 19 19 19 19 19 19 19 18 18 18 18 18 17 17 17 16 16 16 16 16 16 17 17
31 32 31 31 30 30 30 30 30 30 30 30 29 27 26 24 22 21 21 20 20 21 21 21 21 21 20 20 20 20 21 21 20 20 19 19 19 18 18 18 18 18 19 19
33 33 32 33 32 32 32 32 32 32 32 32 31 30 29 28 26 24 22 21 22 22 23 22 22 22 22 22 23 23 23 23 23 22 21 21 21 20 20 20 20 20 20 22
33 33 33 33 33 33 35 33 33 33 33 33 33 32 31 30 28 27 25 23 24 24 24 24 24 24 24 24 25 25 25 25 24 24 23 22 22 22 22 22 22 22 23 24
33 34 34 34 34 35 35 34 34 35 35 34 34 33 32 32 30 29 28 26 25 25 26 26 26 26 26 26 26 27 26 26 26 25 24 24 24 24 24 25 25 25 26 27
34 34 35 35 34 34 36 34 34 34 35 35 34 34 33 32 31 31 30 29 28 27 27 28 28 28 28 28 28 28 28 27 27 27 26 26 26 27 27 28 29 28 28 29
33 33 34 35 34 33 34 33 33 34 35 34 34 34 33 33 33 33 31 31 30 29 29 29 29 30 30 30 30 30 29 29 29 29 29 29 29 29 30 30 30 30 31 31
31 32 33 34 34 34 33 32 32 34 35 33 33 33 33 34 34 34 33 32 32 32 31 31 31 31 32 32 32 32 32 32 32 31 32 31 31 31 31 31 32 33 33 34
30 31 32 33 34 35 33 32 33 35 34 33 33 33 33 33 34 34 33 33 34 33 33 33 33 33 33 34 34 34 34 34 34 34 34 34 34 34 34 34 34 35 35 35
31 31 32 33 33 34 33 33 34 35 35 35 35 35 34 34 34 34 34 34 34 34 34 35 35 35 35 35 36 36 36 36 36 36 36 35 35 36 36 36 36 36 37 37
32 32 32 33 33 33 34 34 34 34 35 35 36 35 35 35 35 35 35 36 35 35 35 35 35 35 36 36 36 36 36 36 36 37 36 36 37 37 37 36 37 38 38 38
31 32 33 33 34 35 35 35 35 34 34 35 35 35 35 36 36 36 36 36 35 34 34 34 34 35 35 36 36 36 36 36 37 37 37 37 37 37 37 38 38 38 38 37
30 31 31 32 32 33 34 35 35 34 34 34 34 34 35 36 36 36 36 36 36 35 34 34 35 35 36 36 36 36 36 36 36 36 36 37 37 37 37 38 38 38 38 38
Wind_Direction
206 206 208 209 201 202 214 223 241 248 241 229 196 167 149 129 111 91 86 78 64 72 76 76 82 97 106 109 107 102 103 113 108 100 104 113 125 125 119 126 129 133 138 139
213 216 215 211 208 207 209 224 245 257 260 246 237 240 226 190 163 112 101 103 32 36 53 66 74 86 103 112 111 98 100 108 108 100 104 120 124 122 119 129 133 135 143 144
219 223 219 215 214 212 218 227 239 249 256 257 254 266 259 236 224 225 251 264 288 306 311 47 62 56 73 92 95 96 104 97 105 109 136 127 114 112 127 150 156 161 183 197
223 223 222 220 219 220 229 231 234 239 239 250 255 255 263 238 231 229 241 259 275 280 270 275 281 332 344 355 16 33 74 87 89 78 157 158 146 146 212 217 218 217 233 259
226 223 222 223 225 225 229 232 234 231 235 242 251 246 252 251 242 234 234 244 261 267 267 267 265 278 285 285 294 296 317 321 332 347 225 218 234 249 261 266 259 255 262 276
229 225 223 225 227 227 231 231 233 236 241 246 243 241 250 248 244 237 237 241 246 254 259 260 262 266 272 275 278 283 292 294 293 294 273 256 256 257 262 272 270 271 277 283
233 230 227 226 227 230 231 230 236 244 245 243 244 244 245 244 241 239 244 246 249 254 260 261 262 261 261 268 269 271 275 282 280 279 280 274 273 268 266 274 275 279 283 285
233 234 231 229 229 232 232 230 231 237 246 252 251 249 250 248 246 246 251 252 251 254 258 262 262 262 262 264 266 268 271 275 275 270 275 277 276 272 272 275 277 280 284 286
231 234 235 232 231 233 233 232 234 241 245 249 253 253 253 253 250 248 252 256 255 255 256 263 268 266 264 263 265 266 268 270 273 271 274 276 276 273 271 273 276 277 282 286
232 233 235 234 233 234 233 233 236 237 242 247 254 254 254 254 255 253 252 253 254 255 255 259 265 265 263 264 266 268 268 267 269 272 273 277 278 275 273 273 273 274 277 279
231 232 234 235 234 236 236 237 237 239 241 244 253 256 256 257 254 254 255 255 255 257 256 257 260 259 260 262 265 268 268 267 270 272 273 275 276 275 273 272 273 274 278 279
231 232 234 237 238 238 240 241 240 241 245 247 249 255 257 258 257 256 258 259 257 258 258 258 258 259 259 262 265 267 267 268 270 273 274 275 273 272 274 276 275 274 278 284
233 234 236 240 241 240 240 240 239 240 246 250 250 254 259 260 260 259 260 259 258 257 257 257 259 260 262 263 264 266 267 267 269 272 274 275 274 271 272 276 276 277 282 286
235 236 235 237 240 244 243 242 241 241 243 247 249 250 256 258 260 260 260 260 258 255 255 256 259 261 263 264 265 266 266 267 268 271 274 274 275 273 274 276 277 279 282 283
237 238 239 238 239 242 244 244 243 243 243 245 249 251 253 256 258 260 259 258 258 255 253 255 257 259 261 263 265 266 267 269 270 270 273 275 274 275 273 275 278 280 281 282
239 240 241 242 242 243 245 245 246 246 246 247 249 251 253 254 256 257 258 257 256 255 253 253 255 258 260 262 263 265 268 271 272 274 276 277 277 277 275 275 277 280 281 281
241 242 243 244 245 245 246 245 245 247 248 248 250 252 253 254 254 256 257 255 253 253 253 253 255 258 260 262 264 265 268 271 273 274 275 276 278 278 278 276 278 279 280 281
241 242 244 245 247 247 248 247 246 247 248 249 250 251 251 252 253 255 256 255 253 253 253 253 255 258 260 262 265 267 269 271 271 272 273 274 276 279 280 278 279 280 280 281
243 243 245 246 248 250 250 249 248 247 248 248 249 250 251 252 254 255 254 253 253 254 253 254 256 258 260 262 264 266 267 269 270 271 272 274 276 277 279 279 279 281 281 281
243 244 244 245 246 248 251 250 247 246 248 247 249 249 249 251 253 254 254 254 254 252 253 254 255 257 259 261 263 265 266 268 269 271 273 275 275 277 279 280 280 282 283 282
244 245 245 245 247 250 251 250 248 246 247 247 248 249 249 250 252 254 255 255 254 254 255 255 256 258 260 261 263 265 265 267 268 270 272 274 275 276 277 279 280 281 283 283
247 248 247 247 248 249 251 252 250 249 249 248 248 250 251 252 253 254 255 256 256 255 255 255 256 257 259 261 263 264 265 266 267 269 270 273 274 276 277 279 280 281 282 284
246 247 248 247 248 250 251 253 253 251 250 249 250 250 251 253 254 254 255 256 256 257 256 255 256 258 259 260 262 264 265 266 267 268 269 272 273 274 277 279 279 280 281 283
246 246 247 248 248 249 250 252 254 252 251 251 251 252 252 253 254 255 255 255 256 257 256 256 257 259 261 263 264 264 266 267 267 269 270 272 273 274 276 278 280 280 282 282
247 248 248 249 249 249 250 252 253 252 252 253 254 253 252 253 254 255 255 256 257 257 258 258 259 260 262 262 264 265 267 267 268 269 270 272 274 275 276 278 278 279 281 281
249 251 251 251 251 250 250 250 251 251 252 252 252 252 254 254 255 256 256 256 255 256 257 258 259 261 262 263 265 266 268 269 270 270 271 272 274 275 276 277 278 278 279 279